Вернуться в каталог

CZ-3B R/B

АктивенHEO
NORAD 55913·ROCKET BODY·🇨🇳 China

Запущен Mar 17, 2023 с Xichang Satellite Launch Center

Loading…

Ближайшие Пролёты (ближайшие 24 часа)

TLE

СвежийSource: Space-Track

Эпоха: Sep 14, 2026, 12:31 UTC

1 55913U 23036B   26257.52187425  .00062277 -32066-6  84184-3 0  9999
2 55913  28.1421 257.8623 4496540 212.9943 108.6099  6.64699673 55254

Отслеживайте CZ-3B R/B в реальном времени с AllMySat

Download on the App Store